Weather History for KVPZ - December, 2013

Change the Weather History Date:

Saturday, December 21, 2013

  Actual Average Record
Temperature  
Mean Temperature 34 °F 26 °F  
Max Temperature 35 °F 33 °F 51 °F (2006)
Min Temperature 32 °F 20 °F -5 °F (2008)
Degree Days  
Heating Degree Days 31 39  
Month to date heating degree days 862 746  
Since 1 July heating degree days 2248 2004  
Cooling Degree Days 0 0  
Month to date cooling degree days 0 0  
Year to date cooling degree days 810 713  
Moisture  
Dew Point 33 °F    
Average Humidity 100    
Maximum Humidity 100    
Minimum Humidity 96    
Precipitation  
Precipitation 0.44 in 0.07 in 0.44 in (2013)
Month to date precipitation 1.05 1.54  
Year to date precipitation 35.60 36.87  
Sea Level Pressure  
Sea Level Pressure 29.76 in    
Wind  
Wind Speed 5 mph (NNE)    
Max Wind Speed 17 mph    
Max Gust Speed 23 mph    
Visibility 3 miles    
Events Fog , Rain    
T = Trace of Precipitation, MM = Missing Value Source: NWS Daily Summary

Daily Weather History Graph

Daily Weather History Graph

Search for Another Location

Airport or City:

Trip Planner

Search our weather history database for the weather conditions in past years. The results will help you decide how hot, cold, wet, or windy it might be!

Date:

Astronomy

Dec. 21, 2013 Rise Set
Actual Time 7:11 AM CST 4:21 PM CST
Civil Twilight 6:39 AM CST 4:53 PM CST
Nautical Twilight 6:04 AM CST 5:27 PM CST
Astronomical Twilight 5:30 AM CST 6:01 PM CST
Moon 8:40 PM CST (12/21) 9:34 AM CST (12/21)
Length of Visible Light 10h 13m
Length of Day
9h 10m
Waning Gibbous, 84% of the Moon is Illuminated
Dec 21
Waning Gibbous
Dec 25
Last Quarter
Jan 1
New
Jan 7
First Quarter
Jan 15
Full

Hourly Weather History & Observations

Time (CST) Temp. Windchill Dew Point Humidity Pressure Visibility Wind Dir Wind Speed Gust Speed Precip Events Conditions
12:53 AM 33.1 °F 28.7 °F 33.1 °F 100% 29.80 in 0.5 mi West 4.6 mph - N/A Fog Fog
1:27 AM 33.1 °F 27.7 °F 33.1 °F 100% 29.78 in 0.2 mi West 5.8 mph - N/A Fog Fog
1:53 AM 33.1 °F 28.7 °F 33.1 °F 100% 29.80 in 0.2 mi NW 4.6 mph - N/A Fog Fog
2:53 AM 33.1 °F 27.7 °F 33.1 °F 100% 29.85 in 0.2 mi West 5.8 mph - N/A Fog Fog
3:44 AM 32.0 °F - 32.0 °F 100% 29.81 in 0.5 mi Calm Calm - N/A Fog Fog
3:53 AM 32.0 °F - 32.0 °F 100% 29.83 in 0.5 mi Calm Calm - N/A Fog Fog
4:53 AM 32.0 °F - 32.0 °F 100% 29.83 in 0.5 mi Calm Calm - N/A Fog Fog
5:20 AM 32.0 °F 28.7 °F 32.0 °F 100% 29.77 in 0.2 mi NNE 3.5 mph - N/A Fog Fog
5:53 AM 32.0 °F - 32.0 °F 100% 29.83 in 0.2 mi Calm Calm - N/A Fog Fog
6:53 AM 32.0 °F - 32.0 °F 100% 29.84 in 0.2 mi Calm Calm - 0.00 in Fog Fog
7:21 AM 32.0 °F 28.7 °F 32.0 °F 100% 29.81 in 0.5 mi North 3.5 mph - 0.00 in Fog Fog
7:45 AM 32.0 °F 28.7 °F 32.0 °F 100% 29.80 in 0.2 mi NE 3.5 mph - 0.00 in Fog Fog
7:53 AM 32.0 °F 27.5 °F 32.0 °F 100% 29.81 in 0.2 mi ENE 4.6 mph - 0.01 in Fog Fog
8:53 AM 33.1 °F - 33.1 °F 100% 29.82 in 0.2 mi Calm Calm - 0.00 in Fog Fog
9:23 AM 33.1 °F - 33.1 °F 100% 29.83 in 0.5 mi Calm Calm - 0.00 in Fog Fog
9:53 AM 34.0 °F - 34.0 °F 100% 29.83 in 1.2 mi Calm Calm - 0.00 in Rain Light Rain
10:23 AM 34.0 °F - 34.0 °F 100% 29.82 in 2.0 mi Calm Calm - 0.00 in   Overcast
10:43 AM 34.0 °F 31.0 °F 34.0 °F 100% 29.81 in 3.0 mi NNE 3.5 mph - 0.00 in   Overcast
10:53 AM 34.0 °F - 34.0 °F 100% 29.83 in 3.0 mi Calm Calm - 0.00 in   Overcast
11:04 AM 34.0 °F - 34.0 °F 100% 29.80 in 3.0 mi Calm Calm - 0.00 in   Overcast
11:53 AM 34.0 °F 29.8 °F 34.0 °F 100% 29.83 in 5.0 mi NNW 4.6 mph - 0.00 in Rain Light Rain
12:53 PM 35.1 °F 31.0 °F 35.1 °F 100% 29.79 in 3.0 mi North 4.6 mph - 0.02 in Rain Light Rain
1:31 PM 35.1 °F 32.2 °F 35.1 °F 100% 29.77 in 3.0 mi NNE 3.5 mph - 0.02 in Rain Light Rain
1:48 PM 35.6 °F - 35.6 °F 100% 29.78 in 2.5 mi Calm Calm - 0.04 in Rain Light Rain
1:53 PM 35.1 °F - 35.1 °F 100% 29.80 in 2.5 mi Calm Calm - 0.05 in Rain Light Rain
2:04 PM 35.1 °F 32.2 °F 35.1 °F 100% 29.76 in 2.5 mi NE 3.5 mph - 0.01 in Rain Light Rain
2:14 PM 35.1 °F 31.0 °F 35.1 °F 100% 29.76 in 2.0 mi ENE 4.6 mph - 0.01 in Rain Light Rain
2:29 PM 35.1 °F 31.0 °F 35.1 °F 100% 29.74 in 1.8 mi NE 4.6 mph - 0.02 in Rain Light Rain
2:48 PM 33.8 °F 27.0 °F 33.8 °F 100% 29.72 in 2.5 mi ENE 8.1 mph - 0.02 in Rain Light Rain
2:53 PM 34.0 °F 27.2 °F 34.0 °F 100% 29.75 in 3.0 mi ENE 8.1 mph - 0.02 in Rain Light Rain
3:13 PM 34.0 °F 28.8 °F 34.0 °F 100% 29.73 in 5.0 mi NNE 5.8 mph - 0.01 in Rain Light Rain
3:49 PM 33.8 °F 27.7 °F 33.8 °F 100% 29.72 in 4.0 mi NE 6.9 mph - 0.01 in Rain Light Rain
3:53 PM 34.0 °F 28.0 °F 34.0 °F 100% 29.75 in 5.0 mi NNE 6.9 mph - 0.01 in Rain Light Rain
4:19 PM 34.0 °F 27.2 °F 34.0 °F 100% 29.72 in 6.0 mi NE 8.1 mph - 0.00 in Rain Light Rain
4:28 PM 34.0 °F 28.0 °F 34.0 °F 100% 29.73 in 7.0 mi NE 6.9 mph - 0.01 in Rain Light Rain
4:53 PM 34.0 °F 28.8 °F 34.0 °F 100% 29.77 in 5.0 mi NNE 5.8 mph - 0.03 in Rain Rain
5:53 PM 33.1 °F 26.9 °F 33.1 °F 100% 29.77 in 5.0 mi NNE 6.9 mph - 0.10 in Rain Rain
6:05 PM 33.1 °F 26.1 °F 33.1 °F 100% 29.75 in 5.0 mi NNE 8.1 mph - 0.02 in Rain Rain
6:19 PM 33.1 °F 26.1 °F 33.1 °F 100% 29.73 in 6.0 mi NE 8.1 mph - 0.04 in Rain Light Rain
6:53 PM 33.1 °F 25.5 °F 33.1 °F 100% 29.74 in 6.0 mi NE 9.2 mph - 0.07 in Rain Light Rain
7:21 PM 33.1 °F 24.4 °F 33.1 °F 100% 29.68 in 7.0 mi NE 11.5 mph - 0.02 in Rain Light Rain
7:53 PM 33.1 °F 23.9 °F 33.1 °F 100% 29.68 in 8.0 mi NE 12.7 mph 21.9 mph 0.04 in Rain Light Rain
8:21 PM 33.1 °F 24.4 °F 32.0 °F 96% 29.65 in 7.0 mi ENE 11.5 mph - 0.03 in Rain Light Rain
8:53 PM 33.1 °F 24.9 °F 32.0 °F 96% 29.66 in 8.0 mi NE 10.4 mph - 0.07 in Rain Light Rain
9:53 PM 33.1 °F 24.9 °F 32.0 °F 96% 29.64 in 10.0 mi NE 10.4 mph - 0.01 in   Overcast
10:53 PM 32.0 °F 23.0 °F 32.0 °F 100% 29.60 in 7.0 mi NE 11.5 mph - 0.00 in   Overcast
11:53 PM 32.0 °F 24.8 °F 32.0 °F 100% 29.58 in 8.0 mi NNE 8.1 mph - 0.00 in Rain Light Rain